[[{"header":{"parameterUnit":"m.s-1","parameterCategory":2,"la1":30.2992,"la2":30.254,"lo1":-89.0895,"lo2":-89.0443,"dy":0.0025,"dx":0.0025,"nx":19,"ny":19,"refTime":"2026-04-09T21:00:00:Z","depth":"0","parameterNumber":2,"parameterNumberName":"U-component_of_CURRENTS"},"data":[0,0,0,-0.2598,-0.26,-0.2675,-0.2675,-0.2706,-0.2706,0,0,0,0,0,0,0,0,0,0,0,-0.2556,-0.2557,-0.2597,-0.26,-0.2675,-0.2675,-0.2706,-0.2706,0,0,0,0,0,0,0,0,0,0,0,-0.2556,-0.2557,-0.2557,-0.26,-0.2675,-0.2675,-0.2706,-0.2662,0,0,0,0,0,0,0,0,0,0,-0.2596,-0.2561,-0.2557,-0.2557,-0.2601,-0.2675,-0.2675,-0.2661,-0.2665,-0.2657,0,-0.2669,0,-0.27,-0.2708,-0.2708,0,0,0,-0.2587,-0.2558,-0.2594,-0.2557,-0.2602,-0.2675,-0.2638,-0.2664,-0.2668,-0.2662,-0.267,-0.2673,-0.27,-0.2708,-0.2708,-0.2793,-0.2793,0,0,-0.2583,-0.2554,-0.2591,-0.2597,-0.2622,-0.2635,-0.264,-0.2667,-0.2661,-0.2671,-0.2674,-0.2701,-0.2708,-0.2708,-0.2792,-0.2793,0,0,0,-0.258,-0.2551,-0.2587,-0.2594,-0.262,-0.2638,-0.2643,-0.2659,-0.2676,-0.2675,-0.2701,-0.2708,-0.2709,-0.2791,-0.2792,-0.2831,0,0,0,-0.2576,-0.255,-0.2585,-0.2566,-0.262,-0.2648,-0.2634,-0.2673,-0.2679,-0.2701,-0.2708,-0.2709,-0.279,-0.2792,-0.2828,-0.2835,0,0,0,-0.2553,-0.2548,-0.256,-0.2565,-0.2607,-0.2649,-0.2666,-0.2675,-0.2695,-0.2708,-0.2709,-0.279,-0.2792,-0.2825,-0.2831,-0.2838,0,0,0,-0.2515,-0.2546,-0.2559,-0.2609,-0.2607,-0.2696,-0.2667,-0.2716,-0.2733,-0.2708,-0.279,-0.2792,-0.2824,-0.2829,-0.2836,-0.2744,-0.2745,0,0,-0.2541,-0.2548,-0.2585,-0.26,-0.2689,-0.2685,-0.2767,-0.2768,-0.2755,-0.2772,-0.2775,-0.2829,-0.2831,-0.2837,-0.2845,-0.2843,0,0,0,-0.2586,-0.2606,-0.2638,-0.269,-0.2751,-0.2794,-0.2813,-0.2819,-0.2837,-0.2777,-0.2854,-0.2854,-0.2856,-0.2798,-0.2798,-0.2764,-0.28,-0.28,-0.28,-0.2552,-0.2617,-0.2674,-0.2753,-0.2809,-0.2874,-0.2903,-0.2913,-0.2896,-0.2914,-0.2905,-0.2961,-0.2902,-0.29,-0.2868,-0.2932,-0.2932,-0.2932,-0.2932,-0.2577,-0.26,-0.2689,-0.2764,-0.2833,-0.2894,-0.2972,-0.2972,-0.2999,-0.2975,-0.2975,-0.2866,-0.2901,-0.2867,-0.2935,-0.2934,-0.2934,-0.2934,-0.2934,-0.2526,-0.2543,-0.2605,-0.2702,-0.2789,-0.2883,-0.2947,-0.3003,-0.3018,-0.3035,-0.2944,-0.2942,-0.2892,-0.3025,-0.3025,-0.3025,-0.3025,-0.3025,-0.3025,-0.2419,-0.249,-0.2516,-0.2636,-0.2683,-0.2782,-0.2922,-0.2961,-0.2985,-0.2976,-0.2975,-0.2911,-0.2989,-0.2962,-0.3026,-0.3026,-0.3026,-0.3026,-0.3026,-0.2319,-0.2349,-0.2386,-0.2429,-0.2554,-0.2591,-0.2781,-0.2857,-0.2914,-0.2899,-0.2862,-0.2941,-0.2911,-0.291,-0.2882,-0.2922,-0.2922,-0.2922,-0.2922,-0.2207,-0.2243,-0.224,-0.2279,-0.2363,-0.2489,-0.2502,-0.2621,-0.2726,-0.2729,-0.2804,-0.2765,-0.277,-0.2732,-0.2735,-0.2703,-0.2697,-0.2696,-0.2696,-0.2104,-0.2136,-0.2079,-0.2157,-0.2256,-0.2331,-0.2296,-0.2397,-0.2578,-0.2689,-0.2782,-0.2791,-0.2738,-0.2749,-0.269,-0.2697,-0.2644,0,0]},{"header":{"parameterUnit":"m.s-1","parameterCategory":2,"la1":30.2992,"la2":30.254,"lo1":-89.0895,"lo2":-89.0443,"dy":0.0025,"dx":0.0025,"nx":19,"ny":19,"refTime":"2026-04-09T21:00:00:Z","depth":"0","parameterNumber":3,"parameterNumberName":"V-component_of_CURRENTS"},"data":[0,0,0,-0.0256,-0.0254,-0.0139,-0.0138,0.005,0.0052,0,0,0,0,0,0,0,0,0,0,0,-0.0298,-0.0298,-0.0256,-0.0254,-0.0139,-0.0138,0.005,0.0052,0,0,0,0,0,0,0,0,0,0,0,-0.0298,-0.0298,-0.0297,-0.0254,-0.0139,-0.0138,0.0049,-0.0042,0,0,0,0,0,0,0,0,0,0,-0.0157,-0.0216,-0.0298,-0.0297,-0.0253,-0.0139,-0.0138,-0.0047,-0.0037,0.0002,0,0.0004,0,0.0024,0.0063,0.0064,0,0,0,-0.0232,-0.0225,-0.0191,-0.0297,-0.0253,-0.0139,-0.0184,-0.0041,-0.003,0.0016,0.0006,0.0013,0.0028,0.0064,0.0065,0.0185,0.0185,0,0,-0.0238,-0.0272,-0.02,-0.0185,-0.0242,-0.0188,-0.0181,-0.0034,-0.0031,0.0007,0.0018,0.0031,0.0065,0.0067,0.0185,0.0185,0,0,0,-0.0272,-0.0276,-0.0246,-0.0193,-0.0179,-0.0186,-0.0177,-0.0038,-0.0028,0.002,0.0033,0.0066,0.0068,0.0185,0.0185,0.0077,0,0,0,-0.0274,-0.0297,-0.025,-0.0267,-0.0183,-0.0114,-0.0184,-0.0038,-0.0021,0.0032,0.0066,0.007,0.0185,0.0185,0.008,0.0018,0,0,0,-0.03,-0.0299,-0.0292,-0.027,-0.0229,-0.0116,-0.0097,-0.0033,-0.0013,0.0064,0.007,0.0185,0.0185,0.0082,0.0024,0.0053,0,0,0,-0.0328,-0.0356,-0.0293,-0.0315,-0.0231,-0.0182,-0.0098,-0.0046,0.0011,0.0067,0.0185,0.0185,0.0083,0.0027,0.0055,0.0124,0.0119,0,0,-0.0386,-0.0364,-0.0376,-0.0318,-0.0313,-0.0195,-0.0166,-0.0057,0.003,0.0143,0.0146,0.0079,0.0024,0.0054,0.0128,0.0123,0,0,0,-0.0408,-0.0424,-0.0409,-0.0389,-0.032,-0.025,-0.0136,-0.007,0.0033,0.0061,0.0111,0.008,0.0102,0.0149,0.0146,0.0418,0.0185,0.0185,0.0185,-0.0526,-0.0489,-0.0514,-0.0459,-0.0412,-0.0281,-0.0213,-0.0095,-0.0012,0.002,0.0016,-0.0006,0.0042,0.0041,0.0319,0.0053,0.0053,0.0053,0.0052,-0.0637,-0.0659,-0.0598,-0.0611,-0.0509,-0.0459,-0.0282,-0.0205,-0.009,-0.0037,-0.0008,0.0062,0.003,0.033,0.0046,0.0047,0.0048,0.0048,0.0049,-0.0728,-0.0738,-0.0733,-0.0737,-0.0695,-0.0569,-0.0504,-0.0354,-0.0195,-0.0175,-0.0046,-0.0043,0.0204,-0.0141,-0.0141,-0.0141,-0.0141,-0.0141,-0.0141,-0.0827,-0.0823,-0.0878,-0.0865,-0.0868,-0.0811,-0.0624,-0.0514,-0.0288,-0.0154,-0.0151,0.0244,-0.0063,-0.0074,-0.0144,-0.0143,-0.0143,-0.0143,-0.0143,-0.0948,-0.0939,-0.1033,-0.106,-0.1058,-0.1032,-0.0841,-0.0548,-0.0388,-0.0258,0.0254,-0.0099,-0.0044,-0.0039,-0.0046,-0.0105,-0.0105,-0.0105,-0.0105,-0.1027,-0.1031,-0.1158,-0.1223,-0.1243,-0.1133,-0.0964,-0.0599,-0.0006,0.0325,0.0423,0.051,0.0496,0.0589,0.0581,0.0589,0.0693,0.0695,0.0696,-0.1102,-0.1136,-0.124,-0.1296,-0.1326,-0.1228,-0.1036,-0.0572,0.0328,0.0756,0.0789,0.0755,0.0909,0.0865,0.1031,0.0997,0.1017,0,0]}],[{"header":{"parameterUnit":"m.s-1","parameterCategory":2,"la1":30.2992,"la2":30.254,"lo1":-89.0895,"lo2":-89.0443,"dy":0.0025,"dx":0.0025,"nx":19,"ny":19,"refTime":"2026-04-09T21:00:00:Z","depth":"2","parameterNumber":2,"parameterNumberName":"U-component_of_CURRENTS"},"data":[0,0,0,-0.2429,-0.2431,-0.2511,-0.2512,-0.2543,-0.2543,0,0,0,0,0,0,0,0,0,0,0,-0.2388,-0.2389,-0.2429,-0.2431,-0.2511,-0.2512,-0.2543,-0.2543,0,0,0,0,0,0,0,0,0,0,0,-0.2388,-0.2389,-0.2389,-0.2432,-0.2511,-0.2512,-0.2543,-0.2498,0,0,0,0,0,0,0,0,0,0,-0.2427,-0.2395,-0.2388,-0.2389,-0.2432,-0.2511,-0.2512,-0.2496,-0.25,-0.249,0,-0.2504,0,-0.2534,-0.2545,-0.2545,0,0,0,-0.242,-0.2391,-0.2427,-0.2389,-0.2433,-0.2511,-0.2472,-0.2499,-0.2504,-0.2495,-0.2505,-0.2507,-0.2535,-0.2545,-0.2545,-0.2627,-0.2628,0,0,-0.2416,-0.2389,-0.2423,-0.243,-0.2455,-0.247,-0.2475,-0.2503,-0.2498,-0.2505,-0.2509,-0.2535,-0.2545,-0.2545,-0.2626,-0.2627,0,0,0,-0.2411,-0.2385,-0.2421,-0.2427,-0.2453,-0.2472,-0.2478,-0.2497,-0.2513,-0.2509,-0.2536,-0.2545,-0.2546,-0.2625,-0.2626,-0.2667,0,0,0,-0.2407,-0.2384,-0.2419,-0.2401,-0.2453,-0.2485,-0.2471,-0.251,-0.2515,-0.2535,-0.2545,-0.2546,-0.2625,-0.2626,-0.2664,-0.2672,0,0,0,-0.2384,-0.2381,-0.2394,-0.24,-0.2443,-0.2485,-0.2502,-0.2512,-0.2531,-0.2545,-0.2546,-0.2624,-0.2626,-0.2662,-0.2668,-0.2676,0,0,0,-0.2349,-0.2379,-0.2393,-0.2441,-0.2443,-0.2529,-0.2502,-0.2553,-0.2571,-0.2546,-0.2625,-0.2626,-0.2661,-0.2666,-0.2674,-0.257,-0.2571,0,0,-0.2373,-0.2381,-0.2416,-0.2432,-0.2517,-0.2517,-0.2597,-0.2602,-0.2591,-0.2606,-0.2609,-0.2665,-0.2668,-0.2676,-0.267,-0.2667,0,0,0,-0.2416,-0.2435,-0.2466,-0.2517,-0.2576,-0.2621,-0.2642,-0.2651,-0.2673,-0.2613,-0.2689,-0.269,-0.2693,-0.2627,-0.2626,-0.2635,-0.2634,-0.2634,-0.2634,-0.2386,-0.2447,-0.2501,-0.2576,-0.2631,-0.2697,-0.2728,-0.2742,-0.2727,-0.2749,-0.2741,-0.2799,-0.2732,-0.2729,-0.2767,-0.2768,-0.2768,-0.2768,-0.2768,-0.241,-0.2431,-0.2516,-0.2588,-0.2657,-0.2719,-0.2796,-0.2801,-0.2833,-0.2811,-0.2812,-0.2696,-0.273,-0.2772,-0.2771,-0.277,-0.277,-0.277,-0.277,-0.2364,-0.2378,-0.2439,-0.2533,-0.2621,-0.2714,-0.2778,-0.2836,-0.2855,-0.2874,-0.2777,-0.2775,-0.2796,-0.2866,-0.2866,-0.2866,-0.2867,-0.2867,-0.2867,-0.2264,-0.2331,-0.2358,-0.2474,-0.2521,-0.262,-0.2759,-0.2798,-0.2819,-0.281,-0.2809,-0.2832,-0.2828,-0.2802,-0.2868,-0.2868,-0.2868,-0.2868,-0.2867,-0.2169,-0.22,-0.2235,-0.2279,-0.2399,-0.2422,-0.2616,-0.2686,-0.2746,-0.2727,-0.2768,-0.277,-0.2738,-0.2738,-0.2709,-0.2748,-0.2748,-0.2748,-0.2748,-0.2064,-0.2099,-0.2097,-0.2134,-0.2212,-0.2318,-0.229,-0.2331,-0.2459,-0.245,-0.2463,-0.2407,-0.242,-0.2367,-0.2375,-0.2338,-0.2279,-0.2278,-0.2277,-0.1967,-0.1997,-0.1943,-0.2016,-0.2107,-0.2153,-0.2034,-0.1914,-0.2005,-0.2254,-0.2336,-0.2725,-0.2677,-0.2683,-0.2628,-0.2631,-0.2582,0,0]},{"header":{"parameterUnit":"m.s-1","parameterCategory":2,"la1":30.2992,"la2":30.254,"lo1":-89.0895,"lo2":-89.0443,"dy":0.0025,"dx":0.0025,"nx":19,"ny":19,"refTime":"2026-04-09T21:00:00:Z","depth":"2","parameterNumber":3,"parameterNumberName":"V-component_of_CURRENTS"},"data":[0,0,0,-0.0272,-0.027,-0.0159,-0.0158,0.0023,0.0025,0,0,0,0,0,0,0,0,0,0,0,-0.0312,-0.0312,-0.0272,-0.027,-0.0159,-0.0158,0.0023,0.0025,0,0,0,0,0,0,0,0,0,0,0,-0.0312,-0.0312,-0.0312,-0.027,-0.0159,-0.0158,0.0023,-0.0066,0,0,0,0,0,0,0,0,0,0,-0.0177,-0.0233,-0.0312,-0.0312,-0.027,-0.0159,-0.0158,-0.007,-0.006,-0.0023,0,-0.0021,0,-0.0002,0.0036,0.0036,0,0,0,-0.0248,-0.0242,-0.021,-0.0312,-0.0269,-0.016,-0.0203,-0.0065,-0.0054,-0.001,-0.0019,-0.0012,0.0001,0.0037,0.0038,0.0152,0.0152,0,0,-0.0255,-0.0287,-0.0218,-0.0203,-0.0259,-0.0207,-0.02,-0.0058,-0.0055,-0.0018,-0.0008,0.0004,0.0038,0.0039,0.0152,0.0152,0,0,0,-0.0287,-0.0291,-0.0262,-0.0211,-0.0198,-0.0204,-0.0196,-0.0061,-0.0052,-0.0006,0.0006,0.0039,0.0041,0.0152,0.0152,0.0048,0,0,0,-0.029,-0.0311,-0.0266,-0.0283,-0.0201,-0.0135,-0.0203,-0.0061,-0.0045,0.0006,0.0039,0.0042,0.0152,0.0152,0.005,-0.001,0,0,0,-0.0314,-0.0314,-0.0307,-0.0285,-0.0246,-0.0137,-0.0119,-0.0057,-0.0038,0.0036,0.0043,0.0152,0.0152,0.0053,-0.0005,0.0024,0,0,0,-0.0341,-0.0369,-0.0308,-0.033,-0.0247,-0.0202,-0.0119,-0.007,-0.0016,0.004,0.0152,0.0152,0.0054,-0.0001,0.0026,0.0086,0.0081,0,0,-0.0398,-0.0377,-0.0389,-0.0332,-0.033,-0.0215,-0.0188,-0.0082,0.0003,0.0112,0.0115,0.0049,-0.0004,0.0024,0.0088,0.0083,0,0,0,-0.0421,-0.0437,-0.0423,-0.0404,-0.0338,-0.0271,-0.016,-0.0096,0.0005,0.0033,0.008,0.005,0.0071,0.0113,0.0109,0.0152,0.0152,0.0152,0.0152,-0.0536,-0.0501,-0.0526,-0.0473,-0.0429,-0.0303,-0.0237,-0.0122,-0.0041,-0.0009,-0.0013,-0.0035,0.0007,0.0005,0.0023,0.0023,0.0022,0.0022,0.0022,-0.0645,-0.0667,-0.0608,-0.0623,-0.0524,-0.0477,-0.0306,-0.023,-0.0118,-0.0065,-0.0038,0.0027,-0.0005,0.0014,0.0016,0.0017,0.0018,0.0018,0.0019,-0.0733,-0.0743,-0.0739,-0.0745,-0.0705,-0.0584,-0.0522,-0.0375,-0.0221,-0.02,-0.0079,-0.0076,-0.0094,-0.0167,-0.0167,-0.0167,-0.0167,-0.0167,-0.0167,-0.0829,-0.0825,-0.088,-0.0869,-0.0872,-0.0819,-0.0638,-0.0532,-0.0314,-0.0185,-0.0183,-0.0097,-0.0091,-0.0101,-0.017,-0.0169,-0.0169,-0.0169,-0.0169,-0.0947,-0.0938,-0.103,-0.1057,-0.1058,-0.1033,-0.0851,-0.057,-0.0415,-0.0291,-0.0135,-0.0135,-0.0082,-0.0077,-0.0083,-0.0144,-0.0144,-0.0143,-0.0143,-0.1023,-0.1027,-0.1152,-0.1216,-0.1238,-0.1131,-0.0974,-0.065,-0.0318,-0.0147,-0.0148,-0.0114,-0.0114,-0.0061,-0.0055,-0.0061,-0.0115,-0.0115,-0.0115,-0.1097,-0.1129,-0.1232,-0.1287,-0.1318,-0.1223,-0.1046,-0.0661,-0.0219,-0.0119,-0.0194,-0.0132,-0.008,-0.0081,0.0008,0.0013,0.0008,0,0]}],[{"header":{"parameterUnit":"m.s-1","parameterCategory":2,"la1":30.2992,"la2":30.254,"lo1":-89.0895,"lo2":-89.0443,"dy":0.0025,"dx":0.0025,"nx":19,"ny":19,"refTime":"2026-04-09T21:00:00:Z","depth":"4","parameterNumber":2,"parameterNumberName":"U-component_of_CURRENTS"},"data":[0,0,0,-0.1611,-0.1614,-0.1783,-0.1784,-0.1887,-0.1887,0,0,0,0,0,0,0,0,0,0,0,-0.1554,-0.1555,-0.1611,-0.1615,-0.1783,-0.1784,-0.1887,-0.1887,0,0,0,0,0,0,0,0,0,0,0,-0.1553,-0.1555,-0.1556,-0.1615,-0.1783,-0.1784,-0.1887,-0.1788,0,0,0,0,0,0,0,0,0,0,-0.1638,-0.1602,-0.1554,-0.1556,-0.1616,-0.1783,-0.1784,-0.1784,-0.1794,-0.1778,0,-0.1813,0,-0.185,-0.1892,-0.1892,0,0,0,-0.1616,-0.1594,-0.1639,-0.1556,-0.1618,-0.1782,-0.1707,-0.179,-0.1801,-0.179,-0.1815,-0.1819,-0.1851,-0.1892,-0.1892,-0.2009,-0.2009,0,0,-0.1606,-0.1582,-0.1632,-0.1646,-0.1671,-0.1702,-0.1712,-0.1798,-0.181,-0.1815,-0.1823,-0.1853,-0.1892,-0.1893,-0.2008,-0.2009,0,0,0,-0.1579,-0.1575,-0.1621,-0.164,-0.1679,-0.1707,-0.1719,-0.1807,-0.1822,-0.1824,-0.1854,-0.1893,-0.1894,-0.2007,-0.2008,-0.2055,0,0,0,-0.1573,-0.156,-0.1616,-0.1603,-0.1678,-0.1761,-0.1725,-0.1817,-0.1828,-0.1854,-0.1893,-0.1894,-0.2006,-0.2008,-0.2052,-0.2059,0,0,0,-0.1544,-0.1557,-0.1579,-0.1602,-0.1675,-0.1761,-0.1782,-0.1821,-0.1845,-0.1892,-0.1894,-0.2005,-0.2007,-0.2049,-0.2055,-0.2068,0,0,0,-0.1509,-0.1547,-0.1579,-0.164,-0.1673,-0.1784,-0.1783,-0.1871,-0.1917,-0.1893,-0.2006,-0.2008,-0.2048,-0.2053,-0.2066,-0.1799,0,0,0,-0.1531,-0.1549,-0.1586,-0.1619,-0.1718,-0.176,-0.1868,-0.1927,-0.1936,-0.1967,-0.1972,-0.2053,-0.2055,-0.2067,-0.1914,0,0,0,0,-0.1578,-0.1605,-0.1641,-0.1713,-0.1792,-0.1875,-0.1944,-0.1973,-0.2041,-0.1974,-0.2079,-0.2078,-0.2084,-0.1924,-0.2017,-0.2017,-0.2017,-0.2017,-0.2016,-0.1554,-0.1618,-0.1685,-0.1774,-0.1852,-0.1965,-0.2028,-0.2081,-0.2086,-0.2131,-0.2137,-0.2204,-0.204,-0.2165,-0.2166,-0.2166,-0.2166,-0.2166,-0.2166,-0.1571,-0.1599,-0.1709,-0.18,-0.1903,-0.2001,-0.2114,-0.2146,-0.2217,-0.2207,-0.2211,-0.201,-0.2172,-0.2171,-0.217,-0.2169,-0.2169,-0.2169,-0.2168,-0.1522,-0.154,-0.1631,-0.176,-0.1892,-0.2022,-0.2102,-0.2199,-0.2248,-0.2278,-0.2093,-0.2231,-0.2203,-0.2282,-0.2282,-0.2283,-0.2283,-0.2283,-0.2283,-0.141,-0.1499,-0.1562,-0.1717,-0.1798,-0.1925,-0.2102,-0.2139,-0.2225,-0.2113,-0.229,-0.2242,-0.2238,-0.221,-0.2285,-0.2284,-0.2284,-0.2284,-0.2284,-0.1305,-0.1365,-0.143,-0.1511,-0.168,-0.1753,-0.1967,-0.1997,-0.2012,-0.1959,-0.2015,-0.2027,-0.1977,-0.198,-0.1939,-0.1937,-0.1934,-0.1931,0,-0.1206,-0.1249,-0.1303,-0.1374,-0.1448,-0.1635,-0.1618,-0.1709,-0.1786,-0.1722,-0.1992,-0.2053,-0.206,-0.2003,-0.2,-0.1951,0,0,0,-0.1119,-0.1157,-0.1142,-0.1247,-0.1327,-0.1428,-0.1598,-0.1562,-0.1787,-0.1736,-0.1851,-0.1872,-0.2129,-0.229,-0.2243,-0.2239,-0.219,0,0]},{"header":{"parameterUnit":"m.s-1","parameterCategory":2,"la1":30.2992,"la2":30.254,"lo1":-89.0895,"lo2":-89.0443,"dy":0.0025,"dx":0.0025,"nx":19,"ny":19,"refTime":"2026-04-09T21:00:00:Z","depth":"4","parameterNumber":3,"parameterNumberName":"V-component_of_CURRENTS"},"data":[0,0,0,-0.0232,-0.0231,-0.0162,-0.0162,-0.0027,-0.0026,0,0,0,0,0,0,0,0,0,0,0,-0.0255,-0.0255,-0.0232,-0.0231,-0.0163,-0.0162,-0.0027,-0.0026,0,0,0,0,0,0,0,0,0,0,0,-0.0255,-0.0255,-0.0255,-0.0231,-0.0163,-0.0162,-0.0028,-0.0087,0,0,0,0,0,0,0,0,0,0,-0.0157,-0.0197,-0.0255,-0.0255,-0.023,-0.0163,-0.0162,-0.009,-0.0083,-0.005,0,-0.0053,0,-0.0043,-0.0018,-0.0017,0,0,0,-0.0212,-0.0203,-0.0183,-0.0255,-0.023,-0.0163,-0.0188,-0.0086,-0.0078,-0.0041,-0.0051,-0.0046,-0.0041,-0.0017,-0.0016,0.0066,0.0066,0,0,-0.0216,-0.0238,-0.0189,-0.0179,-0.0228,-0.019,-0.0186,-0.0082,-0.008,-0.0051,-0.0043,-0.0039,-0.0016,-0.0015,0.0066,0.0066,0,0,0,-0.0239,-0.024,-0.0224,-0.0184,-0.0179,-0.0189,-0.0184,-0.0084,-0.0079,-0.0042,-0.0037,-0.0015,-0.0014,0.0066,0.0066,-0.0022,0,0,0,-0.0241,-0.0255,-0.0226,-0.0237,-0.0182,-0.0139,-0.0189,-0.0086,-0.0074,-0.0038,-0.0015,-0.0013,0.0066,0.0066,-0.002,-0.007,0,0,0,-0.0256,-0.0256,-0.0254,-0.0239,-0.0217,-0.0141,-0.0129,-0.0083,-0.0072,-0.0017,-0.0012,0.0067,0.0066,-0.0017,-0.0065,-0.0044,0,0,0,-0.0271,-0.0297,-0.0254,-0.0278,-0.0218,-0.0197,-0.0129,-0.01,-0.0061,-0.0015,0.0066,0.0066,-0.0017,-0.0063,-0.0042,-0.0074,0,0,0,-0.0318,-0.0303,-0.0318,-0.0278,-0.029,-0.0204,-0.0196,-0.0116,-0.0047,0.0039,0.0041,-0.002,-0.0065,-0.0044,-0.0078,0,0,0,0,-0.0341,-0.0356,-0.0351,-0.0345,-0.0305,-0.0262,-0.0182,-0.0132,-0.0055,-0.0027,0.0003,-0.0022,-0.0006,-0.0017,0.0066,0.0066,0.0066,0.0066,0.0066,-0.0425,-0.0407,-0.0436,-0.0407,-0.0383,-0.0297,-0.0252,-0.0164,-0.0098,-0.0073,-0.0077,-0.0101,-0.0116,-0.0048,-0.0049,-0.0049,-0.005,-0.005,-0.005,-0.0508,-0.0527,-0.0501,-0.0526,-0.0465,-0.0441,-0.0316,-0.0256,-0.0171,-0.0125,-0.0104,-0.009,-0.0058,-0.0056,-0.0055,-0.0054,-0.0054,-0.0053,-0.0053,-0.0565,-0.0573,-0.059,-0.0618,-0.0608,-0.0531,-0.0492,-0.0382,-0.0257,-0.0243,-0.0196,-0.014,-0.0149,-0.0215,-0.0215,-0.0215,-0.0215,-0.0215,-0.0215,-0.0613,-0.0629,-0.0688,-0.0708,-0.0732,-0.071,-0.0588,-0.0511,-0.037,-0.0298,-0.0258,-0.0155,-0.015,-0.0156,-0.0218,-0.0217,-0.0217,-0.0217,-0.0216,-0.0676,-0.0687,-0.0777,-0.0822,-0.0866,-0.084,-0.074,-0.0556,-0.047,-0.0376,-0.0296,-0.0292,-0.0252,-0.0243,-0.0252,-0.0344,-0.0344,-0.0345,0,-0.0713,-0.0726,-0.0847,-0.0926,-0.0961,-0.0906,-0.0797,-0.0673,-0.049,-0.0492,-0.0472,-0.0391,-0.0384,-0.0347,-0.034,-0.0356,0,0,0,-0.075,-0.0785,-0.0873,-0.0953,-0.0998,-0.0855,-0.0759,-0.0691,-0.053,-0.0433,-0.0361,-0.0357,-0.0321,-0.0224,-0.0151,-0.0144,-0.015,0,0]}]]